Regional Weather Roundup
Issued by NWS

Home | Current Version | Previous Version | Text Only | Print | Product List | Glossary On
Versions: 1 2 3 4 5 6 7 8 9 10 11 12 13 14 15 16 17 18 19 20 21 22 23 24 25 26 27 28 29 30 31 32 33 34 35 36 37 38 39 40 41 42 43 44 45 46 47 48 49 50
000
ASUS43 KTOP 022308
RWRKS

WEATHER ROUNDUP FOR KANSAS
NATIONAL WEATHER SERVICE GOODLAND KS
600 PM CDT THU JUL 02 2015

NOTE:  "FAIR" INDICATES FEW OR NO CLOUDS BELOW 12,000 FEET WITH NO
SIGNIFICANT WEATHER AND/OR OBSTRUCTIONS TO VISIBILITY.

KSZ001>006-013>018-027>032-041>047-030000-
NORTHWEST KANSAS

CITY           SKY/WX    TMP DP  RH WIND       PRES   REMARKS
GOODLAND       SUNNY     86  56  35 N13G21    30.05F
HAYS           SUNNY     86  61  42 CALM      29.95S
HILL CITY      LGT RAIN  91  59  33 N9        29.95F
RUSSELL        SUNNY     83  67  58 SW8       29.93F
$$

KSZ061>065-074>080-084>089-030000-
SOUTHWEST KANSAS

CITY           SKY/WX    TMP DP  RH WIND       PRES   REMARKS
DODGE CITY     PTSUNNY   83  62  49 NE8       29.99F
ELKHART          N/A     88  59  37 E7          N/A
GARDEN CITY    PTSUNNY   77  68  73 SE6       30.00F
GREAT BEND     MOSUNNY   81  68  65 NW3       29.96F
LIBERAL        PTSUNNY   88  63  42 NE10G16     N/A
PRATT          PTSUNNY   75  63  64 CALM      29.97F
$$

KSZ066>073-081>083-090>101-030000-
SOUTHEAST KANSAS

CITY           SKY/WX    TMP DP  RH WIND       PRES   REMARKS
CHANUTE        CLOUDY    77  72  84 CALM      29.90F
COFFEYVILLE    CLOUDY    81  71  71 N14       29.91R
HUTCHINSON     MOSUNNY   78  67  68 NW6       29.93F
MEDICINE LODGE   N/A     76  69  79 E9        29.92F
NEWTON         PTSUNNY   73  63  68 CALM      29.93F
PARSONS        LGT RAIN  78  72  81 CALM      29.92F
WICHITA INTL   CLOUDY    76  70  82 CALM      29.92F
WICHITA JABRA  CLOUDY    75  70  84 E5        29.90F
WICHITA MCCONL CLOUDY    76  71  82 SE1       29.91F
WINFIELD       CLOUDY    79  70  74 N9        29.94F
$$

KSZ007>012-019>026-033>040-048>060-102>105-030000-
NORTHEAST KANSAS

CITY           SKY/WX    TMP DP  RH WIND       PRES   REMARKS
CONCORDIA      PTSUNNY   79  67  66 SW5       29.89S
EMPORIA        CLOUDY    79  69  71 CALM      29.91F
LAWRENCE       CLOUDY    73  68  84 E3        29.91F
MANHATTAN      RAIN      69  67  93 E7        29.90F
MARYSVILLE     MOSUNNY   73  70  88 SE6       29.90F
OLATHE IND     PTSUNNY   74  68  81 E8        29.92F
OLATHE EXE     CLOUDY    72  67  84 NE8       29.92F
SALINA         SUNNY     84  67  56 W14       29.90F
TOPEKA BILLARD CLOUDY    74  69  85 VRB3      29.92S
TOPEKA FORBES  PTSUNNY   77  68  73 E5        29.91F
$$



USA.gov is the U.S. government's official web portal to all federal, state and local government web resources and services.